Погода в Городовиковске

Погода в Городовиковске : погода сейчас, прогноз погоды и архив. Всё, что Вы хотите узнать о погоде в Городовиковске!

Хотите узнать прогноз погоды в Городовиковске? Тогда Вам сюда: Погода в Городовиковске

Поиск расширенной информации на нашем сайте:

Другие новости

Новости СМИ2

Главная страница сайта

Новости сайта

03.07.2017

Напоминаем, что на нашем специализированном сайте Метеоцентр.Азия вы можете получить высокодетализированные автоматические прогнозы погоды по пунктам России, СНГ и мира в авиационном формате (включающие направление и скорость ветра, видимость, явления погоды, количество и форму облачности, нижнюю и верхнюю границу облачности).


Погода в Городовиковске - сегодня

Время (UTC), дата Ветер
(°,м/с) 
Видим.   Явления Облачность Т
(°С)
Тd
(°С)
f(%) Тe
(°С)
Pmin
(гПа)
dP
(гПа)
Po
(мм)
O2
(г/м3)
Тmin Tmax R s Состояние
почвы
06 15.08.17 100 (В) 20000 м    4/0 средняя 
[Ac trans]
+27.9 +12.5 39 +32  1013.1  0.8  752  273  +21.2         
09 15.08.17 130 (ЮВ) 20000 м    4/0 средняя, верхняя 
[Ac trans|Cc]
+32 +8.8 24 +32  1012.8  -0.2  752  270           
12 15.08.17 090 (В) 20000 м    1/0 средняя 
[Ac trans]
+33.2 +7.1 20 +33  1011.2  -1.5  751  269           
15 15.08.17 070 (В) 20000 м    8/0 средняя, верхняя 
[Ac trans|Ci sp]
+31.6 +5.9 20 +32  1012.3  752  271    +33.3       
18 15.08.17 180 (Ю) 20000 м    3/0 верхняя 
[Ci sp]
+26.2 +10.4 37 +28  1013.4  753  275           
21 15.08.17 070 (В) 20000 м    ясно 
+20.3 +11 55 +23  1014  0.4  753  280           
00 16.08.17 080 (В) 20000 м    ясно 
+18.9 +11.1 61 +23  1013.7  -0.4  753  282           
03 16.08.17 130 (ЮВ) 20000 м    8/0 средняя, верхняя 
[Ac trans|Ci]
+18.6 +11.3 62 +23  1014.1  0.4  753  282  +16.5        сухая 
06 16.08.17 120 (ЮВ) 20000 м    10/0 верхняя 
[Cc]
+27.9 +10.3 33 +29  1013.9  0.1  753  273           
09 16.08.17 110 (В) 5{11}  20000 м    10/3 600 м верхняя 
[Sc|Cc]
+31.3 +5 19 +31  1014.2  0.4  753  272           
12 16.08.17 090 (В) 4{12}  20000 м    8/0 верхняя 
[Ci fib]
+32.7 +2.6 15 +33  1014.3  0.2  753  271           
15 16.08.17 100 (В) 3{11}  20000 м    6/0 верхняя 
[Ci fib]
+31.9 +1.9 15 +32  1013.6  -0.8  753  271    +32.8       
18 16.08.17 090 (В) 20000 м    ясно 
+25.3 +13.8 49 +32  1013.9  0.1  753  275           
21 16.08.17 100 (В) 20000 м    ясно 
+23.2 +6.2 33 +23  1014.5  0.5  753  279           
00 17.08.17 080 (В) 20000 м    ясно 
+19.9 +8.1 46 +21  1015.1  0.5  754  282           
03 17.08.17 070 (В) 20000 м    3/0 верхняя 
[Ci fib]
+18.3 +10.9 62 +21  1015.6  0.5  754  283  +18.1        сухая 
06 17.08.17 080 (В) 20000 м    3/0 верхняя 
[Ci sp]
+26.9 +11 37 +29  1015.2  -0.1  754  275           
09 17.08.17 090 (В) 5-14{14}  20000 м    4/0 средняя, верхняя 
[Ac trans|Ci sp]
+32.5 +4.1 17 +33  1012.9  -2.1  752  270           
12 17.08.17 120 (ЮВ) 5-13{15}  20000 м    9/6 600 м средняя 
[Sc|Ac trans]
+34.5 +4.5 15 +35  1011.9  -1  752  268           
15 17.08.17 110 (В) 3{13}  20000 м    9/0 средняя 
[Sc|Ac trans]
+33 +4.7 17 +33  1011.1  -0.8  751  269    +34.5       
18 17.08.17 110 (В) 20000 м    9/6 600 м средняя, верхняя 
[Sc|Ac trans|Ci sp]
+29.2 +5.8 23 +29  1012.4  1.1  752  273           
21 17.08.17 110 (В) 20000 м    4/0 средняя 
[Ac trans]
+26.1 +10.2 37 +27  1013.3  0.9  753  275           
00 18.08.17 090 (В) 20000 м    ясно 
+22.1 +8.2 41 +22  1013.5  753  279           
03 18.08.17 080 (В) 20000 м    6/0 средняя, верхняя 
[Sc|Ac trans|Ci sp]
+19.3 +9.7 54 +21  1015.2  1.6  754  282  +19.3        сухая 
06 18.08.17 090 (В) 20000 м    6/0 верхняя 
[Cc]
+26.7 +4.1 23 +27  1015.5  0.6  754  276           
Время (UTC), дата Ветер
(°,м/с) 
Видим.   Явления Облачность Т
(°С)
Тd
(°С)
f(%) Тe
(°С)
Pmin
(гПа)
dP
(гПа)
Po
(мм)
O2
(г/м3)
Тmin Tmax R s Состояние
почвы

Для получения пояснительной информации подведите курсор к названию столбца.

ПОГОДА в Городовиковске - архив

Всё, что Вы хотите узнать о погоде в Городовиковске - удобно и подробно!

Выберите нужную дату (начиная с 1 января 2015* года) и нажмите кнопку "Найти".
Будут отображены архивные сводки погоды по пункту Городовиковск, начиная с указанной даты.


Отображать данные в формате CSV (для использования в таблицах Excel)


Внимание! Наш архив погоды предназначен исключительно для личного некоммерческого использования в познавательных целях. Если Вам необходимы официальные справки о состоянии погоды (для производственных, юридических, коммерческих и т.п. целей), обращайтесь в органы Росгидромета.

*Примечание: данная дата относится к архиву по метеостанциям СССР (Россия, СНГ, Балтия).
Архив по метеостанциям Зарубежной Европы и Азии (кроме Китая) хранится 10 дней, по другим регионам земного шара (Китай, Африка, Америка, Австралия, Океания) - 1 день.

Городовиковск - район местоположения метеостанции


Название, широта, долгота, высота метеостанции:
Городовиковск 46.1°ш. 41.1°д. 86 м над ур. моря [Российская Федерация]

Дополнительная информация

В oтличие oт бoльшинства пoгoдных сайтoв мы публикуем пoдрoбную метеoинфoрмацию в детальнoм прoфессиoнальнoм фoрмате.

Характеристики температуры и влажнoсти вoздуха измеряются на высoте 2 м в тени вдали oт зданий и деревьев.
Скoрoсть ветра измеряется на высoте 10 м (на урoвне рoста челoвека скoрoсть ветра ниже в 1.5-2 раза). Если метеoстанция нахoдится в гoрoде или в лесу, тo скoрoсть ветра занижена на 2-4 м/с пo сравнению с oткрытым местoм. Скoрoсть ветра над акватoриями крупных рек и oзёр, а также на вершинах хoлмoв на 2-5 м/с выше, чем в oбычных услoвиях.
Атмoсфернoе давление в разных тoчках местнoсти мoжет значительнo oтличаться oт давления на метеoстанции, в зависимoсти oт услoвий рельефа (при пoдъёме на 10 м давление пoнижается примернo на 1 мм рт.ст.).